EW2353 Weather Reports


time (UTC)temp
C
wind
direction
speed
KPH
gust
KPH
rain 1hr
cm
rain 24hr
cm
rain mn
cm
humidity
%
barometer
mb
20260504200318 20 242 12.9 24.1 0.03 0.08 0.08 67 1008.2
20260504195810 20 216 8.0 19.3 0.03 0.08 0.08 69 1008.2
20260504195323 20 212 9.7 19.3 0.03 0.08 0.08 70 1008.2
20260504194816 20 238 6.4 14.5 0.05 0.08 0.08 72 1008.3
20260504194329 20 208 8.0 14.5 0.05 0.08 0.08 73 1008.2
20260504193822 19 240 4.8 14.5 0.08 0.08 0.08 80 1008.3
20260504193319 18 199 6.4 12.9 0.08 0.08 0.08 78 1008.3
20260504192832 18 220 3.2 9.7 0.08 0.08 0.08 80 1008.3
20260504192324 17 252 6.4 14.5 0.08 0.08 0.08 81 1008.5
20260504191816 17 219 6.4 14.5 0.08 0.08 0.08 81 1008.6
20260504191329 17 216 6.4 14.5 0.08 0.08 0.08 80 1008.7
20260504190822 17 240 6.4 11.3 0.08 0.08 0.08 80 1008.7
20260504190315 17 231 0.0 12.9 0.05 0.05 0.05 80 1008.2
20260504185828 17 210 6.4 20.9 0.05 0.05 0.05 79 1008.8
20260504185324 17 259 12.9 38.6 0.05 0.05 0.05 77 1009.5
20260504184837 17 251 17.7 38.6 0.03 0.03 0.03 72 1009.3
20260504184328 18 256 11.3 19.3 0.00 0.00 0.00 74 1009.3
20260504183821 18 229 9.7 14.5 0.00 0.00 0.00 72 1008.9
20260504183314 18 210 8.0 14.5 0.00 0.00 0.00 70 1009.4
20260504182827 18 240 9.7 17.7 0.00 0.00 0.00 68 1009.4
20260504182320 19 260 11.3 20.9 0.00 0.00 0.00 66 1009.4
20260504181812 19 237 11.3 20.9 0.00 0.00 0.00 65 1009.2
20260504181325 19 250 9.7 22.5 0.00 0.00 0.00 65 1009.1
20260504180822 20 276 12.9 30.6 0.00 0.00 0.00 64 1009.2
20260504180316 20 233 17.7 30.6 0.00 0.00 0.00 63 1009.0
20260504175828 20 271 12.9 25.7 0.00 0.00 0.00 63 1008.9
20260504175321 20 243 12.9 27.4 0.00 0.00 0.00 62 1008.7
20260504174814 21 236 14.5 27.4 0.00 0.00 0.00 61 1008.7
20260504174326 21 252 16.1 25.7 0.00 0.00 0.00 60 1008.6
20260504173820 21 226 9.7 25.7 0.00 0.00 0.00 63 1008.4
20260504173316 21 224 14.5 29.0 0.00 0.00 0.00 60 1008.3
20260504172850 21 226 16.1 29.0 0.00 0.00 0.00 60 1008.2
20260504172321 21 211 12.9 22.5 0.00 0.00 0.00 61 1008.1
20260504171814 21 211 11.3 20.9 0.00 0.00 0.00 63 1008.2
20260504171327 20 208 9.7 27.4 0.00 0.00 0.00 64 1008.3
20260504170840 20 207 12.9 16.1 0.00 0.00 0.00 64 1008.3
20260504170311 20 205 9.7 19.3 0.00 0.00 0.00 65 1008.4
20260504160326 18 251 8.0 14.5 0.00 0.00 0.00 67 1009.1
20260504150834 18 250 6.4 17.7 0.00 0.00 0.00 68 1009.2
20260504150325 17 212 6.4 19.3 0.00 0.00 0.00 67 1009.2
20260504141316 16 249 8.0 17.7 0.00 0.00 0.00 72 1009.2
20260504140850 16 208 9.7 17.7 0.00 0.00 0.00 72 1009.3
20260504140342 15 232 8.0 20.9 0.00 0.00 0.00 71 1009.3
20260504130320 12 176 6.4 16.1 0.00 0.00 0.00 78 1009.5
20260504120318 11 205 6.4 12.9 0.00 0.00 0.00 78 1009.7
20260504110333 10 209 4.8 11.3 0.00 0.00 0.00 75 1009.7
20260504100312 10 213 6.4 9.7 0.00 0.00 0.00 75 1009.8
20260504081825 10 229 4.8 8.0 0.00 0.00 0.00 73 1010.4
20260504081338 10 221 3.2 6.4 0.00 0.00 0.00 73 1010.4
20260504080827 10 208 3.2 8.0 0.00 0.00 0.00 73 1010.5
20260504080320 10 226 3.2 11.3 0.00 0.00 0.00 73 1010.6
20260504070347 10 200 3.2 11.3 0.00 0.00 0.00 71 1011.0
20260504050321 8 249 0.0 3.2 0.00 0.00 0.00 77 1012.3
20260504045814 8 201 0.0 3.2 0.00 0.00 0.00 77 1012.3
20260504045326 8 211 0.0 1.6 0.00 0.00 0.00 77 1012.3
20260504044819 8 211 0.0 1.6 0.00 0.00 0.00 78 1012.3
20260504044312 8 211 0.0 1.6 0.00 0.00 0.00 78 1012.3
20260504043825 8 144 0.0 0.0 0.00 0.00 0.00 79 1012.3
20260504043318 7 210 0.0 1.6 0.00 0.00 0.00 78 1012.4
20260504042810 7 210 0.0 0.0 0.00 0.00 0.00 78 1012.4
20260504042327 8 210 0.0 0.0 0.00 0.00 0.00 77 1012.5
20260504041820 8 210 0.0 0.0 0.00 0.00 0.00 76 1012.5
20260504041313 8 210 0.0 0.0 0.00 0.00 0.00 75 1012.6
20260504040825 8 210 0.0 0.0 0.00 0.00 0.00 74 1012.7
20260504040318 8 210 0.0 0.0 0.00 0.00 0.00 74 1012.7
20260504035811 9 199 0.0 1.6 0.00 0.00 0.00 73 1012.7
20260504035324 9 199 0.0 1.6 0.00 0.00 0.00 71 1012.7
20260504034816 10 224 0.0 3.2 0.00 0.00 0.00 71 1012.8
20260504034314 10 179 0.0 4.8 0.00 0.00 0.00 70 1012.8
20260504033826 10 157 0.0 4.8 0.00 0.00 0.00 70 1012.8
20260504033319 10 213 0.0 3.2 0.00 0.00 0.00 70 1012.9
20260504032812 10 211 0.0 1.6 0.00 0.00 0.00 69 1012.9
20260504032325 10 146 0.0 1.6 0.00 0.00 0.00 69 1013.0
20260504031817 10 212 0.0 1.6 0.00 0.00 0.00 68 1013.0
20260504031311 10 207 0.0 3.2 0.00 0.00 0.00 67 1013.0
20260504030823 11 228 0.0 3.2 0.00 0.00 0.00 67 1013.0
20260504030320 11 211 0.0 4.8 0.00 0.00 0.00 66 1013.1
20260504025813 11 217 1.6 4.8 0.00 0.00 0.00 66 1013.1
20260504025346 11 179 0.0 3.2 0.00 0.00 0.00 65 1013.2
20260504024818 11 192 0.0 3.2 0.00 0.00 0.00 65 1013.2
20260504024351 11 156 0.0 1.6 0.00 0.00 0.00 65 1013.2
20260504023823 11 224 0.0 1.6 0.00 0.00 0.00 64 1013.2
20260504023315 11 222 0.0 6.4 0.00 0.00 0.00 64 1013.2
20260504022828 11 214 1.6 6.4 0.00 0.00 0.00 64 1013.2
20260504022321 11 205 0.0 4.8 0.00 0.00 0.00 64 1013.2
20260504021818 12 218 1.6 4.8 0.00 0.00 0.00 63 1013.2
20260504021311 12 203 1.6 4.8 0.00 0.00 0.00 62 1013.2
20260504020824 12 252 1.6 4.8 0.00 0.00 0.00 62 1013.2
20260504020337 12 156 0.0 3.2 0.00 0.00 0.00 62 1013.1
20260504015829 12 205 0.0 3.2 0.00 0.00 0.00 62 1013.1
20260504015321 12 184 1.6 4.8 0.00 0.00 0.00 61 1013.1
20260504014814 12 148 1.6 6.4 0.00 0.00 0.00 61 1013.0
20260504014327 12 198 1.6 6.4 0.00 0.00 0.00 61 1013.0
20260504013821 12 154 3.2 8.0 0.00 0.00 0.00 59 1013.0
20260504013313 13 209 3.2 9.7 0.00 0.00 0.00 59 1013.0
20260504012826 13 221 4.8 9.7 0.00 0.00 0.00 58 1013.0
20260504012339 13 216 4.8 11.3 0.00 0.00 0.00 57 1013.0
20260504011811 13 169 6.4 11.3 0.00 0.00 0.00 56 1013.0
20260504011324 13 213 4.8 16.1 0.00 0.00 0.00 55 1012.9
20260504010817 13 187 9.7 16.1 0.00 0.00 0.00 54 1012.9
20260504010330 13 212 6.4 12.9 0.00 0.00 0.00 53 1012.8
20260504005843 13 198 6.4 14.5 0.00 0.00 0.00 54 1012.7
20260504005318 13 212 6.4 14.5 0.00 0.00 0.00 53 1012.8
20260504004811 13 218 8.0 14.5 0.00 0.00 0.00 52 1012.9
20260504004324 13 148 4.8 11.3 0.00 0.00 0.00 53 1012.9
20260504003817 13 226 4.8 11.3 0.00 0.00 0.00 53 1012.9
20260504003330 13 192 6.4 11.3 0.00 0.00 0.00 51 1012.6
20260504002823 13 207 4.8 9.7 0.00 0.00 0.00 51 1012.6
20260504002315 13 172 4.8 14.5 0.00 0.00 0.00 50 1012.6
20260504001828 14 186 8.0 12.9 0.00 0.00 0.00 50 1012.7
20260504001325 14 210 6.4 17.7 0.00 0.00 0.00 49 1012.8
20260504000818 14 233 6.4 17.7 0.00 0.00 0.00 49 1012.9
20260504000311 14 215 6.4 11.3 0.00 0.00 0.00 49 1012.9
20260503235844 14 214 4.8 12.9 0.00 0.00 0.00 50 1013.0
20260503235316 14 214 3.2 9.7 0.00 0.00 0.00 50 1012.9
20260503234826 14 211 4.8 9.7 0.00 0.00 0.00 49 1012.9
20260503234338 14 199 4.8 11.3 0.00 0.00 0.00 48 1012.8
20260503233810 15 226 4.8 11.3 0.00 0.00 0.00 48 1012.7
20260503233323 15 216 4.8 11.3 0.00 0.00 0.00 47 1012.8
20260503232819 15 231 6.4 11.3 0.00 0.00 0.00 47 1012.8
20260503232312 15 212 6.4 12.9 0.00 0.00 0.00 46 1012.8
20260503231825 15 229 8.0 19.3 0.00 0.00 0.00 45 1012.9
20260503231318 15 199 9.7 19.3 0.00 0.00 0.00 44 1012.9
20260503230827 15 212 8.0 16.1 0.00 0.00 0.00 45 1013.0
20260503230320 15 153 8.0 16.1 0.00 0.00 0.00 45 1013.1
20260503225833 15 203 8.0 19.3 0.00 0.00 0.00 46 1013.2
20260503225325 15 216 8.0 19.3 0.00 0.00 0.00 47 1013.3
20260503224816 15 224 9.7 16.1 0.00 0.00 0.00 45 1013.4
20260503224312 15 168 6.4 17.7 0.00 0.00 0.00 45 1013.5
20260503223825 15 220 8.0 19.3 0.00 0.00 0.00 46 1013.7
20260503223318 15 245 12.9 19.3 0.00 0.00 0.00 43 1013.7
20260503222811 15 220 6.4 12.9 0.00 0.00 0.00 43 1013.8
20260503222344 15 227 6.4 17.7 0.00 0.00 0.00 44 1013.9
20260503221816 15 209 11.3 19.3 0.00 0.00 0.00 44 1014.0
20260503221329 15 237 11.3 20.9 0.00 0.00 0.00 43 1014.0
20260503220821 15 212 12.9 20.9 0.00 0.00 0.00 43 1014.1
20260503220318 16 211 9.7 17.7 0.00 0.00 0.00 43 1014.1
20260503215812 16 206 8.0 17.7 0.00 0.00 0.00 43 1014.2
20260503215324 16 243 8.0 24.1 0.00 0.00 0.00 44 1014.2
20260503214817 16 228 16.1 24.1 0.00 0.00 0.00 41 1014.3
20260503214330 16 217 8.0 22.5 0.00 0.00 0.00 44 1014.3
20260503213823 16 188 11.3 22.5 0.00 0.00 0.00 42 1014.4
20260503213316 16 203 8.0 24.1 0.00 0.00 0.00 42 1014.5
20260503212828 16 233 9.7 24.1 0.00 0.00 0.00 44 1014.5
20260503212325 16 261 12.9 22.5 0.00 0.00 0.00 45 1014.5
20260503211838 16 154 11.3 20.9 0.00 0.00 0.00 42 1014.5
20260503211330 15 245 12.9 17.7 0.00 0.00 0.00 43 1014.5
20260503210822 15 224 6.4 16.1 0.00 0.00 0.00 47 1014.6
20260503210314 15 210 6.4 17.7 0.00 0.00 0.00 45 1014.6
20260503205827 15 214 8.0 17.7 0.00 0.00 0.00 43 1014.8
20260503205319 15 254 6.4 12.9 0.00 0.00 0.00 44 1015.0
20260503204812 15 240 4.8 14.5 0.00 0.00 0.00 46 1015.1
20260503204345 15 221 4.8 17.7 0.00 0.00 0.00 44 1015.3
20260503203818 15 264 11.3 17.7 0.00 0.00 0.00 43 1015.6
20260503203351 15 215 6.4 11.3 0.00 0.00 0.00 47 1015.8
20260503202823 15 231 6.4 16.1 0.00 0.00 0.00 46 1015.8
20260503202315 15 240 6.4 19.3 0.00 0.00 0.00 47 1015.7
20260503201849 15 219 6.4 19.3 0.00 0.00 0.00 43 1015.7
20260503201341 15 224 9.7 19.3 0.00 0.00 0.00 46 1015.6